[TLELIST] Archives

 

[list_settings.list_name] Current TLEs

February 27th 2014 PDT

HST 1 20580U 90037B 14056.20236285 .00003552 00000-0 23393-3 0 4452 2 20580 028.4710 052.9924 0003236 166.6181 284.9809 15.04746348107823 ISS (ZARYA) 1 25544U 98067A 14058.46855126 .00016749 00000-0 29256-3 0 7717 2 25544 051.6501 283.4858 0003956 180.3924 247.3447 15.50789403874303 CXO 1 25867U 99040B 14059.46340753 .00000382 00000-0 00000+0 0 9993 2 25867 076.6244 325.6159 8263722 275.4286 000.1837 00.37808716 11500 ____________________________________________________________________ These 2-Line ...Continue Reading

[list_settings.list_name] Current TLEs

February 26th 2014 PDT

HST 1 20580U 90037B 14056.20236285 .00003552 00000-0 23393-3 0 4452 2 20580 028.4710 052.9924 0003236 166.6181 284.9809 15.04746348107823 ISS (ZARYA) 1 25544U 98067A 14057.25106718 .00015552 00000-0 27269-3 0 7611 2 25544 051.6500 289.5226 0003973 176.3852 289.9250 15.50743424874118 CXO 1 25867U 99040B 14059.46538215 .00000382 00000-0 00000+0 0 9984 2 25867 076.6242 325.6157 8263819 275.4301 000.4524 00.37804974 11509 ____________________________________________________________________ These 2-Line ...Continue Reading

[list_settings.list_name] Current TLEs

February 25th 2014 PDT

HST 1 20580U 90037B 14056.20236285 .00003552 00000-0 23393-3 0 4452 2 20580 028.4710 052.9924 0003236 166.6181 284.9809 15.04746348107823 ISS (ZARYA) 1 25544U 98067A 14056.28443439 .00015361 00000-0 26974-3 0 7527 2 25544 051.6501 294.3169 0004003 172.6525 293.7454 15.50711686873966 CXO 1 25867U 99040B 14056.81918468 .00000542 00000-0 00000+0 0 9968 2 25867 076.6129 325.7610 8270553 275.4323 000.3375 00.37804087 11491 ____________________________________________________________________ These 2-Line ...Continue Reading

[list_settings.list_name] Current TLEs

February 24th 2014 PDT

HST 1 20580U 90037B 14054.48541250 .00003772 00000-0 24925-3 0 4446 2 20580 028.4710 064.2673 0003289 148.1408 344.2675 15.04733540107578 ISS (ZARYA) 1 25544U 98067A 14055.31826514 .00016196 00000-0 28423-3 0 7448 2 25544 051.6506 299.1076 0003848 168.2926 300.8990 15.50683911873811 CXO 1 25867U 99040B 14056.81918468 .00000542 00000-0 00000+0 0 9968 2 25867 076.6129 325.7610 8270553 275.4323 000.3375 00.37804087 11491 ____________________________________________________________________ These 2-Line ...Continue Reading

[list_settings.list_name] Current TLEs

February 23rd 2014 PDT

HST 1 20580U 90037B 14053.21440631 .00004128 00000-0 27402-3 0 4435 2 20580 028.4709 072.6128 0003348 135.0039 298.7421 15.04724429107371 ISS (ZARYA) 1 25544U 98067A 14054.53701020 .00017526 00000-0 30709-3 0 7375 2 25544 051.6501 302.9821 0004036 166.7357 258.3052 15.50663878873690 CXO 1 25867U 99040B 14056.81918468 .00000542 00000-0 00000+0 0 9968 2 25867 076.6129 325.7610 8270553 275.4323 000.3375 00.37804087 11491 ____________________________________________________________________ These 2-Line ...Continue Reading

[list_settings.list_name] Current TLEs

February 22nd 2014 PDT

HST 1 20580U 90037B 14053.21440631 .00004128 00000-0 27402-3 0 4435 2 20580 028.4709 072.6128 0003348 135.0039 298.7421 15.04724429107371 ISS (ZARYA) 1 25544U 98067A 14053.39296556 .00018702 00000-0 32754-3 0 7303 2 25544 051.6507 308.6528 0003797 164.3026 350.1116 15.50627395873510 CXO 1 25867U 99040B 14054.17435074 .00000504 00000-0 00000+0 0 9959 2 25867 076.6053 325.8919 8273988 275.4301 000.4301 00.37801772 11488 ____________________________________________________________________ These 2-Line ...Continue Reading

[list_settings.list_name] Current TLEs

February 21st 2014 PDT

HST 1 20580U 90037B 14051.49791012 .00003190 00000-0 20907-3 0 4425 2 20580 028.4707 083.8817 0003428 117.8531 359.3045 15.04712062107121 ISS (ZARYA) 1 25544U 98067A 14052.35340400 .00019101 00000-0 33479-3 0 7248 2 25544 051.6507 313.8062 0003872 160.9375 306.6246 15.50589621873355 CXO 1 25867U 99040B 14054.17435074 .00000504 00000-0 00000+0 0 9959 2 25867 076.6053 325.8919 8273988 275.4301 000.4301 00.37801772 11488 ____________________________________________________________________ These 2-Line ...Continue Reading

[list_settings.list_name] Current TLEs

February 20th 2014 PDT

HST 1 20580U 90037B 14050.15993447 .00002881 00000-0 18770-3 0 4413 2 20580 028.4705 092.6669 0003482 104.9172 310.1963 15.04702927106919 ISS (ZARYA) 1 25544U 98067A 14051.26289138 .00019549 00000-0 34292-3 0 7179 2 25544 051.6514 319.2115 0004038 157.6797 338.5770 15.50548981873189 CXO 1 25867U 99040B 14051.53088452 .00000425 00000-0 00000+0 0 9941 2 25867 076.5997 326.0121 8276823 275.4364 000.6897 00.37803658 11478 ____________________________________________________________________ These 2-Line ...Continue Reading

[list_settings.list_name] Current TLEs

February 19th 2014 PDT

HST 1 20580U 90037B 14050.15993447 .00002881 00000-0 18770-3 0 4413 2 20580 028.4705 092.6669 0003482 104.9172 310.1963 15.04702927106919 ISS (ZARYA) 1 25544U 98067A 14050.35449225 .00019553 00000-0 34342-3 0 7129 2 25544 051.6514 323.7161 0004100 154.9129 307.3936 15.50513004873040 CXO 1 25867U 99040B 14051.53088452 .00000425 00000-0 00000+0 0 9941 2 25867 076.5997 326.0121 8276823 275.4364 000.6897 00.37803658 11478 ____________________________________________________________________ These 2-Line ...Continue Reading

[list_settings.list_name] Current TLEs

February 18th 2014 PDT

TBA - TO BE ASSIGNED 1 20580U 90037B 14048.58661343 .00002824 00000-0 18385-3 0 4402 2 20580 028.4703 102.9979 0003450 088.2176 067.5376 15.04693274106688 TBA - TO BE ASSIGNED 1 25544U 98067A 14049.46136253 .00018080 00000-0 31862-3 0 7042 2 25544 051.6504 328.1462 0004142 152.1742 001.5846 15.50475728872906 TBA - TO BE ASSIGNED 1 25867U 99040B 14051.53088452 .00000425 00000-0 00000+0 0 9941 2 25867 076.5997 326.0121 8276823 275.4364 000.6897 00.37803658 11478 ________________________________________ ...Continue Reading
  • This mailing list is a public mailing list - anyone may join or leave, at any time.
  • This mailing list is announce-only.

International Space Station (ISS) / Hubble Space Telescope (HST) / Chandra X-Ray Observatory Orbital Data via EMAIL

Privacy Policy:

Private list